ANZ433 NZWN-NZQN

Flight info

Callsign ANZ433
Flight time 1h 6m
Altitude 38000
Route SABDA Y622 MESIX H159 CH Y266 ELRUV
Aircraft A320/M-SDE3FGHIRWY/LB1

Departure

Time 2026-05-06 02:09
Airport Wellington International Airport (NZWN)

Arrival

Time 2026-05-06 03:15
Airport Queenstown Airport (NZQN)
Time Latitude Longitude Altitude Speed Heading
2026-05-06 01:40 -41.33014 174.80938 27 ft 0 kts 118°
2026-05-06 01:56 -41.33006 174.80918 26 ft 4 kts 121°
2026-05-06 01:56 -41.32990 174.80889 26 ft 4 kts 140°
2026-05-06 01:56 -41.32969 174.80875 26 ft 2 kts 181°
2026-05-06 01:57 -41.32954 174.80876 26 ft 4 kts 182°
2026-05-06 01:57 -41.32918 174.80878 26 ft 4 kts 182°
2026-05-06 01:57 -41.32906 174.80879 26 ft 3 kts 182°
2026-05-06 01:57 -41.32879 174.80881 26 ft 4 kts 182°
2026-05-06 01:58 -41.32852 174.80883 26 ft 4 kts 182°
2026-05-06 01:58 -41.32825 174.80885 26 ft 4 kts 182°
2026-05-06 01:58 -41.32798 174.80887 26 ft 3 kts 182°
2026-05-06 01:58 -41.32794 174.80887 26 ft 0 kts 182°
2026-05-06 02:01 -41.32800 174.80886 26 ft 4 kts 182°
2026-05-06 02:01 -41.32847 174.80883 26 ft 18 kts 182°
2026-05-06 02:01 -41.32992 174.80874 26 ft 22 kts 182°
2026-05-06 02:02 -41.33090 174.80861 26 ft 10 kts 214°
2026-05-06 02:02 -41.33136 174.80784 26 ft 11 kts 191°
2026-05-06 02:02 -41.33213 174.80784 26 ft 10 kts 180°
2026-05-06 02:02 -41.33296 174.80779 26 ft 14 kts 184°
2026-05-06 02:03 -41.33404 174.80771 26 ft 17 kts 183°
2026-05-06 02:03 -41.33515 174.80764 26 ft 8 kts 184°
2026-05-06 02:03 -41.33526 174.80760 26 ft 0 kts 198°
2026-05-06 02:07 -41.33535 174.80755 26 ft 3 kts 204°
2026-05-06 02:08 -41.33565 174.80717 26 ft 9 kts 238°
2026-05-06 02:08 -41.33559 174.80628 26 ft 11 kts 336°
2026-05-06 02:08 -41.33441 174.80637 27 ft 34 kts
2026-05-06 02:08 -41.32977 174.80674 27 ft 96 kts
2026-05-06 02:09 -41.32186 174.80752 261 ft 118 kts
2026-05-06 02:09 -41.31368 174.80826 849 ft 118 kts
2026-05-06 02:09 -41.30567 174.80867 1472 ft 113 kts 354°
2026-05-06 02:09 -41.29771 174.80911 1972 ft 117 kts 352°
2026-05-06 02:10 -41.28892 174.80948 2248 ft 136 kts 352°
2026-05-06 02:10 -41.27871 174.80974 2530 ft 158 kts 352°
2026-05-06 02:10 -41.26704 174.80808 2762 ft 180 kts 341°
2026-05-06 02:10 -41.25495 174.80419 3483 ft 184 kts 340°
2026-05-06 02:11 -41.24249 174.79970 4201 ft 188 kts 339°
2026-05-06 02:11 -41.22971 174.79497 4728 ft 193 kts 339°
2026-05-06 02:11 -41.21649 174.79007 5365 ft 200 kts 340°
2026-05-06 02:11 -41.20281 174.78509 6117 ft 207 kts 340°
2026-05-06 02:12 -41.18873 174.78006 6912 ft 212 kts 340°
2026-05-06 02:12 -41.17436 174.77499 7644 ft 216 kts 340°
2026-05-06 02:12 -41.15987 174.76924 8417 ft 217 kts 330°
2026-05-06 02:12 -41.14852 174.75632 9143 ft 219 kts 301°
2026-05-06 02:13 -41.14408 174.73702 9884 ft 226 kts 271°
2026-05-06 02:13 -41.14860 174.71674 10566 ft 240 kts 238°
2026-05-06 02:13 -41.16143 174.70189 11252 ft 251 kts 218°
2026-05-06 02:13 -41.17690 174.69071 11985 ft 259 kts 202°
2026-05-06 02:14 -41.19514 174.68701 12524 ft 279 kts 180°
2026-05-06 02:14 -41.21541 174.69011 12776 ft 305 kts 174°
2026-05-06 02:14 -41.23733 174.69401 13004 ft 329 kts 177°
2026-05-06 02:14 -41.26050 174.69808 13194 ft 352 kts 175°
2026-05-06 02:15 -41.28563 174.70239 13317 ft 375 kts 175°
2026-05-06 02:15 -41.31205 174.70690 13719 ft 388 kts 175°
2026-05-06 02:15 -41.33910 174.71149 14299 ft 395 kts 175°
2026-05-06 02:15 -41.36660 174.71346 14851 ft 397 kts 187°
2026-05-06 02:16 -41.39385 174.70796 15486 ft 397 kts 194°
2026-05-06 02:16 -41.42115 174.70155 16087 ft 400 kts 194°
2026-05-06 02:16 -41.44876 174.69505 16679 ft 404 kts 193°
2026-05-06 02:16 -41.47664 174.68832 17253 ft 408 kts 196°
2026-05-06 02:17 -41.50366 174.67715 17853 ft 407 kts 207°
2026-05-06 02:17 -41.52910 174.66051 18457 ft 409 kts 211°
2026-05-06 02:17 -41.55437 174.64288 19098 ft 410 kts 212°
2026-05-06 02:17 -41.57967 174.62516 19746 ft 411 kts 212°
2026-05-06 02:18 -41.60504 174.60740 20399 ft 412 kts 211°
2026-05-06 02:18 -41.63044 174.58961 21029 ft 412 kts 209°
2026-05-06 02:18 -41.65587 174.57185 21633 ft 413 kts 210°
2026-05-06 02:18 -41.68108 174.55433 22160 ft 414 kts 209°
2026-05-06 02:19 -41.70670 174.53651 22697 ft 416 kts 211°
2026-05-06 02:19 -41.73240 174.51855 23214 ft 417 kts 210°
2026-05-06 02:19 -41.75810 174.50056 23735 ft 418 kts 210°
2026-05-06 02:19 -41.78392 174.48250 24187 ft 418 kts 210°
2026-05-06 02:20 -41.83260 174.44014 25011 ft 417 kts 216°
2026-05-06 02:20 -41.85672 174.41817 25386 ft 420 kts 217°
2026-05-06 02:20 -41.88092 174.39619 25756 ft 422 kts 216°
2026-05-06 02:21 -41.90518 174.37416 26166 ft 422 kts 216°
2026-05-06 02:21 -41.92954 174.35203 26555 ft 423 kts 216°
2026-05-06 02:21 -41.95403 174.32973 26940 ft 424 kts 216°
2026-05-06 02:21 -41.97847 174.30739 27313 ft 426 kts 216°
2026-05-06 02:22 -42.00301 174.28489 27660 ft 427 kts 216°
2026-05-06 02:22 -42.02772 174.26223 27930 ft 432 kts 216°
2026-05-06 02:22 -42.05265 174.23939 28211 ft 435 kts 216°
2026-05-06 02:22 -42.07777 174.21635 28536 ft 438 kts 216°
2026-05-06 02:23 -42.10264 174.19354 28867 ft 439 kts 216°
2026-05-06 02:23 -42.12785 174.17039 29354 ft 437 kts 216°
2026-05-06 02:23 -42.15291 174.14734 29883 ft 434 kts 217°
2026-05-06 02:23 -42.17777 174.12445 30400 ft 432 kts 217°
2026-05-06 02:24 -42.20248 174.10169 30858 ft 429 kts 217°
2026-05-06 02:24 -42.22709 174.07906 31325 ft 426 kts 217°
2026-05-06 02:24 -42.25150 174.05658 31797 ft 424 kts 217°
2026-05-06 02:24 -42.27578 174.03418 32281 ft 421 kts 217°
2026-05-06 02:25 -42.29993 174.01188 32755 ft 419 kts 217°
2026-05-06 02:25 -42.32387 173.98969 33235 ft 416 kts 217°
2026-05-06 02:25 -42.34762 173.96761 33716 ft 413 kts 218°
2026-05-06 02:25 -42.37127 173.94564 34208 ft 411 kts 218°
2026-05-06 02:26 -42.39476 173.92382 34614 ft 409 kts 218°
2026-05-06 02:26 -42.41824 173.90205 34945 ft 410 kts 218°
2026-05-06 02:26 -42.44177 173.88021 35260 ft 410 kts 218°
2026-05-06 02:26 -42.46524 173.85836 35549 ft 411 kts 218°
2026-05-06 02:27 -42.48884 173.83636 35832 ft 412 kts 218°
2026-05-06 02:27 -42.51246 173.81432 36097 ft 413 kts 218°
2026-05-06 02:27 -42.53613 173.79221 36362 ft 414 kts 218°
2026-05-06 02:27 -42.55986 173.77001 36621 ft 415 kts 218°
2026-05-06 02:28 -42.58332 173.74804 36871 ft 416 kts 218°
2026-05-06 02:28 -42.60714 173.72572 37126 ft 417 kts 218°
2026-05-06 02:28 -42.63105 173.70331 37372 ft 418 kts 218°
2026-05-06 02:28 -42.65502 173.68087 37610 ft 418 kts 218°
2026-05-06 02:29 -42.67898 173.65837 37853 ft 419 kts 219°
2026-05-06 02:29 -42.70297 173.63579 38088 ft 420 kts 219°
2026-05-06 02:29 -42.72709 173.61306 38202 ft 423 kts 219°
2026-05-06 02:30 -42.77555 173.56743 38207 ft 424 kts 219°
2026-05-06 02:30 -42.82410 173.52167 38205 ft 424 kts 218°
2026-05-06 02:31 -42.87275 173.47569 38208 ft 426 kts 218°
2026-05-06 02:31 -42.92147 173.42953 38204 ft 426 kts 218°
2026-05-06 02:32 -42.97016 173.38321 38206 ft 426 kts 218°
2026-05-06 02:32 -43.01890 173.33691 38202 ft 427 kts 218°
2026-05-06 02:33 -43.06760 173.29056 38217 ft 427 kts 219°
2026-05-06 02:33 -43.08371 173.27516 38212 ft 427 kts 219°
2026-05-06 02:33 -43.13194 173.20907 38206 ft 417 kts 237°
2026-05-06 02:34 -43.14918 173.17709 38203 ft 418 kts 237°
2026-05-06 02:34 -43.18359 173.11346 38171 ft 419 kts 236°
2026-05-06 02:35 -43.21838 173.04916 38168 ft 421 kts 236°
2026-05-06 02:35 -43.25334 172.98447 38182 ft 422 kts 236°
2026-05-06 02:36 -43.28819 172.91960 38182 ft 423 kts 236°
2026-05-06 02:36 -43.32311 172.85450 38182 ft 423 kts 236°
2026-05-06 02:37 -43.35808 172.78925 38182 ft 424 kts 236°
2026-05-06 02:37 -43.39295 172.72399 38184 ft 424 kts 237°
2026-05-06 02:38 -43.42751 172.65898 38198 ft 423 kts 237°
2026-05-06 02:38 -43.46226 172.59352 38189 ft 423 kts 237°
2026-05-06 02:39 -43.49697 172.52816 38186 ft 423 kts 237°
2026-05-06 02:39 -43.52759 172.45945 38194 ft 420 kts 243°
2026-05-06 02:40 -43.55696 172.38978 38182 ft 421 kts 242°
2026-05-06 02:40 -43.58637 172.31978 38190 ft 422 kts 243°
2026-05-06 02:41 -43.61587 172.24951 38178 ft 423 kts 243°
2026-05-06 02:41 -43.64528 172.17912 38178 ft 424 kts 243°
2026-05-06 02:42 -43.67481 172.10860 38180 ft 424 kts 243°
2026-05-06 02:42 -43.70435 172.03795 38182 ft 425 kts 243°
2026-05-06 02:43 -43.73368 171.96761 38187 ft 425 kts 243°
2026-05-06 02:43 -43.76307 171.89654 38205 ft 426 kts 243°
2026-05-06 02:44 -43.79235 171.82538 38192 ft 426 kts 243°
2026-05-06 02:44 -43.82168 171.75421 38186 ft 426 kts 243°
2026-05-06 02:45 -43.85118 171.68306 38190 ft 426 kts 242°
2026-05-06 02:45 -43.88130 171.61278 38156 ft 417 kts 242°
2026-05-06 02:46 -43.90583 171.55593 38169 ft 412 kts 243°
2026-05-06 02:46 -43.93501 171.48748 38163 ft 412 kts 243°
2026-05-06 02:47 -43.96405 171.41874 38166 ft 413 kts 243°
2026-05-06 02:47 -43.99306 171.34993 38161 ft 413 kts 243°
2026-05-06 02:48 -44.02215 171.28116 38206 ft 413 kts 243°
2026-05-06 02:48 -44.05087 171.21341 38162 ft 400 kts 244°
2026-05-06 02:49 -44.07883 171.14685 38159 ft 398 kts 244°
2026-05-06 02:49 -44.10677 171.07996 38152 ft 400 kts 244°
2026-05-06 02:50 -44.13471 171.01298 38157 ft 400 kts 244°
2026-05-06 02:50 -44.16269 170.94595 38161 ft 400 kts 244°
2026-05-06 02:51 -44.19070 170.87878 38183 ft 400 kts 245°
2026-05-06 02:51 -44.21843 170.81177 38188 ft 398 kts 245°
2026-05-06 02:52 -44.24596 170.74525 38205 ft 397 kts 245°
2026-05-06 02:52 -44.27362 170.67849 38200 ft 396 kts 245°
2026-05-06 02:53 -44.30104 170.61182 38206 ft 395 kts 245°
2026-05-06 02:53 -44.32830 170.54518 38160 ft 394 kts 245°
2026-05-06 02:53 -44.34202 170.51174 37382 ft 398 kts 245°
2026-05-06 02:54 -44.35575 170.47833 36812 ft 396 kts 245°
2026-05-06 02:54 -44.36941 170.44505 36232 ft 394 kts 246°
2026-05-06 02:54 -44.38305 170.41176 35582 ft 395 kts 246°
2026-05-06 02:54 -44.39668 170.37843 34912 ft 395 kts 246°
2026-05-06 02:55 -44.41031 170.34493 34223 ft 396 kts 247°
2026-05-06 02:55 -44.42396 170.31133 33373 ft 400 kts 247°
2026-05-06 02:55 -44.43773 170.27744 32589 ft 401 kts 246°
2026-05-06 02:55 -44.45143 170.24374 31776 ft 405 kts 246°
2026-05-06 02:56 -44.46557 170.20884 30914 ft 409 kts 246°
2026-05-06 02:56 -44.47949 170.17439 29986 ft 415 kts 246°
2026-05-06 02:56 -44.49384 170.13893 28959 ft 419 kts 246°
2026-05-06 02:56 -44.50829 170.10328 27913 ft 424 kts 245°
2026-05-06 02:57 -44.52294 170.06707 26815 ft 430 kts 245°
2026-05-06 02:57 -44.53784 170.03028 25826 ft 435 kts 245°
2026-05-06 02:57 -44.55266 169.99365 25175 ft 429 kts 245°
2026-05-06 02:57 -44.56733 169.95722 24420 ft 427 kts 245°
2026-05-06 02:58 -44.58190 169.92094 23652 ft 427 kts 245°
2026-05-06 02:58 -44.59637 169.88475 22844 ft 424 kts 244°
2026-05-06 02:58 -44.61072 169.84892 22116 ft 419 kts 244°
2026-05-06 02:58 -44.62496 169.81342 21349 ft 416 kts 244°
2026-05-06 02:59 -44.63909 169.77812 20604 ft 413 kts 244°
2026-05-06 02:59 -44.65306 169.74309 19889 ft 410 kts 244°
2026-05-06 02:59 -44.66696 169.70815 19171 ft 410 kts 244°
2026-05-06 02:59 -44.68085 169.67321 18485 ft 408 kts 243°
2026-05-06 03:00 -44.69467 169.63843 17754 ft 406 kts 244°
2026-05-06 03:00 -44.70833 169.60401 17120 ft 401 kts 244°
2026-05-06 03:00 -44.72185 169.56999 16520 ft 396 kts 244°
2026-05-06 03:00 -44.73521 169.53643 15908 ft 391 kts 245°
2026-05-06 03:01 -44.74838 169.50320 15305 ft 387 kts 245°
2026-05-06 03:01 -44.76140 169.47024 14693 ft 383 kts 246°
2026-05-06 03:01 -44.77408 169.43807 14088 ft 379 kts 246°
2026-05-06 03:01 -44.78676 169.40579 13416 ft 375 kts 246°
2026-05-06 03:02 -44.79933 169.37373 12593 ft 375 kts 247°
2026-05-06 03:02 -44.81184 169.34189 11992 ft 368 kts 247°
2026-05-06 03:02 -44.82275 169.30994 11342 ft 358 kts 252°
2026-05-06 03:02 -44.83266 169.27825 10970 ft 346 kts 253°
2026-05-06 03:03 -44.84213 169.24813 10837 ft 327 kts 253°
2026-05-06 03:03 -44.85099 169.22012 10688 ft 298 kts 254°
2026-05-06 03:03 -44.85908 169.19442 10422 ft 282 kts 255°
2026-05-06 03:03 -44.86677 169.16924 10185 ft 278 kts 255°
2026-05-06 03:04 -44.87431 169.14435 9953 ft 274 kts 256°
2026-05-06 03:04 -44.88174 169.11994 9810 ft 270 kts 256°
2026-05-06 03:04 -44.88911 169.09579 9670 ft 264 kts 255°
2026-05-06 03:04 -44.89811 169.07342 9542 ft 266 kts 237°
2026-05-06 03:05 -44.91348 169.05821 9411 ft 278 kts 208°
2026-05-06 03:05 -44.93287 169.05501 9249 ft 289 kts 178°
2026-05-06 03:05 -44.95311 169.05946 8805 ft 298 kts 175°
2026-05-06 03:05 -44.97375 169.06304 8304 ft 297 kts 179°
2026-05-06 03:06 -44.99401 169.06320 7779 ft 284 kts 194°
2026-05-06 03:06 -45.01092 169.05225 7319 ft 253 kts 227°
2026-05-06 03:06 -45.02057 169.03368 6949 ft 218 kts 254°
2026-05-06 03:06 -45.02339 169.01392 6754 ft 199 kts 275°
2026-05-06 03:07 -45.02124 168.99508 6543 ft 192 kts 287°
2026-05-06 03:07 -45.01812 168.97713 6362 ft 181 kts 287°
2026-05-06 03:07 -45.01529 168.96054 6134 ft 172 kts 286°
2026-05-06 03:07 -45.01253 168.94435 5943 ft 163 kts 287°
2026-05-06 03:08 -45.00995 168.92938 5722 ft 156 kts 288°
2026-05-06 03:08 -45.00749 168.91506 5472 ft 144 kts 288°
2026-05-06 03:08 -45.00512 168.90153 5332 ft 141 kts 288°
2026-05-06 03:08 -45.00274 168.88800 5147 ft 142 kts 289°
2026-05-06 03:09 -45.00035 168.87452 4941 ft 142 kts 288°
2026-05-06 03:09 -44.99793 168.86091 4741 ft 143 kts 287°
2026-05-06 03:09 -44.99553 168.84724 4544 ft 143 kts 288°
2026-05-06 03:09 -44.99327 168.83353 4339 ft 144 kts 287°
2026-05-06 03:10 -44.99102 168.81974 4178 ft 145 kts 287°
2026-05-06 03:10 -44.98886 168.80588 4104 ft 143 kts 287°
2026-05-06 03:10 -44.98683 168.79209 4090 ft 144 kts 288°
2026-05-06 03:10 -44.98487 168.77818 3944 ft 144 kts 286°
2026-05-06 03:11 -44.98141 168.76527 3786 ft 138 kts 318°
2026-05-06 03:11 -44.97347 168.75821 3671 ft 136 kts 339°
2026-05-06 03:11 -44.96435 168.75795 3631 ft 134 kts 19°
2026-05-06 03:11 -44.95660 168.76507 3591 ft 138 kts 53°
2026-05-06 03:12 -44.95308 168.77768 3610 ft 142 kts 80°
2026-05-06 03:12 -44.95430 168.79148 3523 ft 147 kts 119°
2026-05-06 03:12 -44.96171 168.80165 3424 ft 152 kts 148°
2026-05-06 03:12 -44.97093 168.80877 3308 ft 151 kts 151°
2026-05-06 03:13 -44.98049 168.81516 3154 ft 154 kts 156°
2026-05-06 03:13 -44.99092 168.81853 2955 ft 156 kts 171°
2026-05-06 03:13 -45.00183 168.81729 2542 ft 159 kts 201°
2026-05-06 03:13 -45.00981 168.80758 2222 ft 150 kts 247°
2026-05-06 03:14 -45.01140 168.79344 1915 ft 144 kts 271°
2026-05-06 03:14 -45.01278 168.77940 1575 ft 144 kts 252°
2026-05-06 03:14 -45.01563 168.76599 1338 ft 143 kts 262°
2026-05-06 03:14 -45.01742 168.75224 1183 ft 141 kts 260°
2026-05-06 03:15 -45.01905 168.74197 1168 ft 63 kts 256°
2026-05-06 03:15 -45.01970 168.73773 1165 ft 31 kts 258°
2026-05-06 03:15 -45.02013 168.73571 1167 ft 12 kts 243°
2026-05-06 03:15 -45.02007 168.73535 1164 ft 5 kts 42°
2026-05-06 03:16 -45.01985 168.73673 1163 ft 22 kts 79°
2026-05-06 03:16 -45.01956 168.73866 1166 ft 18 kts 75°
2026-05-06 03:16 -45.01932 168.74028 1166 ft 11 kts 93°
2026-05-06 03:16 -45.01982 168.74024 1166 ft 8 kts 200°
2026-05-06 03:17 -45.02040 168.74002 1164 ft 7 kts 190°
2026-05-06 03:17 -45.02088 168.73979 1163 ft 6 kts 206°
2026-05-06 03:17 -45.02106 168.73966 1164 ft 1 kts 207°
2026-05-06 03:17 -45.02110 168.73963 1164 ft 0 kts 207°